Regional Weather Roundup
Issued by NWS

Home | Current Version | Previous Version | Text Only | Print | Product List | Glossary On
Versions: 1 2 3 4 5 6 7 8 9 10 11 12 13 14 15 16 17 18 19 20 21 22 23 24 25 26 27 28 29 30 31 32 33 34 35 36 37 38 39 40 41 42 43 44 45 46 47 48 49 50
000
ASUS43 KDMX 280806
RWRIA

WEATHER ROUNDUP FOR IOWA
NATIONAL WEATHER SERVICE DES MOINES IA
300 AM CDT SUN MAY 28 2017

NOTE: "FAIR" INDICATES FEW OR NO CLOUDS BELOW 12,000 FEET WITH NO
SIGNIFICANT WEATHER AND/OR OBSTRUCTIONS TO VISIBILITY.

* - THESE STATIONS ARE NOT NWS STATIONS...THUS NOT UNDER NWS
QUALITY CONTROL.  THEY ALSO DO NOT REPORT WEATHER SUCH
AS PRECIPITATION OR FOG.

IAZ001>003-012>014-020>022-031>034-043>046-280900-
   NORTHWEST IOWA

CITY           SKY/WX    TMP DP  RH WIND       PRES   REMARKS
CARROLL *      CLOUDY    55  55 100 SW7       29.89S
CHEROKEE *     CLEAR     53  51  95 S6        29.87F
DENISON *      CLOUDY    54  52  94 SE5       29.92R
LE MARS *      CLEAR     52  50  93 SW3       29.88F
ORANGE CITY *  CLEAR     52  50  93 W6        29.86F
SHELDON *      CLEAR     54  50  87 W8        29.84F
SIOUX CITY     LGT RAIN  51  48  89 CALM      29.88F
SPENCER        CLEAR     52  50  93 W8        29.84F
STORM LAKE *   CLEAR     54  50  87 W9        29.88S
$$

IAZ055>058-069>071-079>083-090>094-280900-
   SOUTHWEST IOWA

CITY           SKY/WX    TMP DP  RH WIND       PRES   REMARKS
ATLANTIC *     CLOUDY    55  54  94 S5        29.91S
AUDUBON *      CLOUDY    54  50  87 CALM      29.91S
CLARINDA *     CLOUDY    57  57 100 CALM      29.94S
COUNCIL BLFS * PTCLDY    55  55 100 W6        29.92S
CRESTON *      CLOUDY    57  57 100 NW7       29.91F
HARLAN  *      CLOUDY    55  55 100 S6        29.94S
LAMONI         CLOUDY    57  55  93 N8        29.87F
RED OAK *      PTCLDY    55  54  94 MISG      29.91F
SHENANDOAH *   CLEAR     57  55  94 W5        29.92F
$$

IAZ047>049-059>061-072>074-084-280900-
   CENTRAL IOWA

CITY           SKY/WX    TMP DP  RH WIND       PRES   REMARKS
AMES           CLOUDY    57  55  93 W5        29.87F
ANKENY *       CLOUDY    57  55  94 NW6       29.87F
BOONE *        CLOUDY    55  55 100 W6        29.87F
CHARITON *     MOCLDY    55  54  94 NW9       29.88S
DES MOINES     CLOUDY    58  55  90 W5        29.87F
GRINNELL*      CLEAR     54  51  92 NW7       29.87F
KNOXVILLE *    PTCLDY    54  52  94 W7        29.86S
MARSHALLTOWN   CLOUDY    54  53  97 NW5       29.85F
NEWTON *       CLOUDY    55  52  88 NW6       29.85F
PELLA *        CLEAR     55  52  92 NW6       29.88S
PERRY *          N/A     58  56  96 SW5       29.89F
$$

IAZ004>006-015-016-023>025-035-036-280900-
   NORTH CENTRAL IOWA

CITY           SKY/WX    TMP DP  RH WIND       PRES   REMARKS
ALGONA *       PTCLDY    57  54  88 W9        29.85S
CLARION *      CLOUDY    55  55 100 SW8       29.86S
ESTHERVILLE    CLEAR     56  52  86 W10       29.83F
FORT DODGE *   MOCLDY    54  48  82 CALM      29.88R
MASON CITY     CLOUDY    57  50  77 W7        29.86S
FOREST CITY *    N/A     54  41  62 S3        29.85R
WEBSTER CITY * CLOUDY    55  54  94 SW8       29.85S
IOWA FALLS *   MOCLDY    57  54  88 W7        29.87F
$$

IAZ007>011-017>019-026>030-037>042-050>054-066-280900-
   NORTHEAST IOWA

CITY           SKY/WX    TMP DP  RH WIND       PRES   REMARKS
CEDAR RAPIDS   RAIN      59  59 100 NW10      29.81S
CHARLES CITY * CLOUDY    57  57 100 W6        29.85S
CLINTON *      CLOUDY    62  60  93 N6        29.79F
DECORAH *      CLOUDY    54  52  94 S3        29.83S
DUBUQUE        CLOUDY    60  57  89 N6        29.80F
MONTICELLO *   CLOUDY    61  59  94 N3        29.81S
WATERLOO       PTCLDY    50  49  96 NW5       29.83F
$$

IAZ064-065-067-068-078-280900-
   EAST CENTRAL IOWA

CITY           SKY/WX    TMP DP  RH WIND       PRES   REMARKS
DAVENPORT      CLOUDY    61  59  93 N3        29.79S
IOWA CITY      PTCLDY    60  57  89 CALM      29.82S
MT. PLEASANT * CLEAR     59  59 100 NW5       29.80F
MUSCATINE *    PTCLDY    59  57  94 NW5       29.80S
QUAD CITIES    FOG       61  58  90 W3        29.78S VSB 1
$$

IAZ062-063-075>077-085>089-095>099-280900-
   SOUTHEAST IOWA

CITY           SKY/WX    TMP DP  RH WIND       PRES   REMARKS
BURLINGTON     CLOUDY    62  62 100 NW7       29.78F
FAIRFIELD *    CLOUDY    59  57  94 NW7       29.83R
FORT MADISON * CLOUDY    63  63 100 NW8       29.78F FOG
KEOKUK *       FOG       63  63 100 N7        29.76F VSB 1/4
OSKALOOSA *    CLOUDY    57  54  89 NW8       29.86R
CENTERVILLE *    N/A     55  55 100 NW6       29.86F
OTTUMWA        LGT RAIN  58  56  93 NW7       29.85R
WASHINGTON *   MOCLDY    59  59 100 NW9       29.83S
$$

ABBREVIATIONS USED IN REMARKS
   TC - TEMPERATURES IN CELSIUS
  WCI - WIND CHILL INDEX
   HX - HEAT INDEX
  VSB - VISIBILITY
$$




USA.gov is the U.S. government's official web portal to all federal, state and local government web resources and services.